Location: Piotrkow Trybunalski
(51.4000°N, 19.6830°E)
Time: 09:23:08
(UTC+01:00)

BlueWalker 3 - Pass Details

Date: 10 December 2022
Orbit: 499 x 517 km, 53.2° (Epoch: 29 January)

Event Time Altitude Azimuth Distance (km) Brightness Sun altitude
Rises 17:47:40 0° 288° (WNW) 2,631 6.6 -19.8°
Reaches altitude 10° 17:50:07 10° 276° (W) 1,737 5.7 -20.2°
Maximum altitude 17:53:25 26° 219° (SW) 1,024 4.0 -20.7°
Enters shadow 17:56:31 11° 163° (SSE) 1,658 4.5 -21.1°
